TimeEST,TemperatureF,Dew PointF,Humidity,Sea Level PressureIn,VisibilityMPH,Wind Direction,Wind SpeedMPH,Gust SpeedMPH,PrecipitationIn,Events,Conditions,WindDirDegrees,DateUTC
12:54 AM,54.0,51.1,90,30.26,6.0,Calm,Calm,-,N/A,,Mostly Cloudy,0,2012-12-04 05:54:00
1:54 AM,53.1,51.1,93,30.26,6.0,SE,3.5,-,N/A,,Scattered Clouds,130,2012-12-04 06:54:00
2:54 AM,51.1,50.0,96,30.26,6.0,SSE,3.5,-,N/A,,Scattered Clouds,160,2012-12-04 07:54:00
3:54 AM,51.1,50.0,96,30.26,3.0,Calm,Calm,-,N/A,,Scattered Clouds,0,2012-12-04 08:54:00
4:20 AM,50.0,50.0,100,30.24,2.0,Calm,Calm,-,N/A,,Mostly Cloudy,0,2012-12-04 09:20:00
4:54 AM,51.1,51.1,100,30.25,2.0,Calm,Calm,-,N/A,,Scattered Clouds,0,2012-12-04 09:54:00
5:08 AM,51.8,50.0,94,30.24,4.0,Calm,Calm,-,N/A,,Scattered Clouds,0,2012-12-04 10:08:00
5:54 AM,50.0,50.0,100,30.26,3.0,Calm,Calm,-,N/A,,Scattered Clouds,0,2012-12-04 10:54:00
6:54 AM,48.2,46.4,93,30.25,4.0,Calm,Calm,-,N/A,,Scattered Clouds,0,2012-12-04 11:54:00
7:54 AM,51.1,50.0,96,30.28,5.0,South,4.6,-,N/A,,Scattered Clouds,170,2012-12-04 12:54:00
8:54 AM,55.9,53.1,90,30.29,6.0,South,6.9,-,N/A,,Scattered Clouds,190,2012-12-04 13:54:00
9:54 AM,62.1,53.1,72,30.29,10.0,SSW,5.8,-,N/A,,Mostly Cloudy,210,2012-12-04 14:54:00
10:54 AM,66.9,53.1,61,30.27,10.0,South,8.1,-,N/A,,Mostly Cloudy,190,2012-12-04 15:54:00
11:54 AM,70.0,52.0,53,30.23,10.0,SSW,10.4,-,N/A,,Mostly Cloudy,200,2012-12-04 16:54:00
12:54 PM,73.4,51.8,47,30.18,10.0,SSW,17.3,-,N/A,,Mostly Cloudy,210,2012-12-04 17:54:00
1:54 PM,75.0,51.1,43,30.17,10.0,SW,16.1,21.9,N/A,,Mostly Cloudy,220,2012-12-04 18:54:00
2:54 PM,73.9,48.9,41,30.15,10.0,WSW,17.3,-,N/A,,Mostly Cloudy,240,2012-12-04 19:54:00
3:54 PM,72.0,48.9,44,30.16,10.0,SW,11.5,-,N/A,,Mostly Cloudy,220,2012-12-04 20:54:00
4:54 PM,66.0,46.9,50,30.16,10.0,SSW,8.1,-,N/A,,Mostly Cloudy,210,2012-12-04 21:54:00
5:54 PM,62.1,46.9,58,30.16,10.0,South,9.2,-,N/A,,Mostly Cloudy,180,2012-12-04 22:54:00
6:54 PM,61.0,50.0,67,30.16,10.0,South,10.4,-,N/A,,Scattered Clouds,190,2012-12-04 23:54:00
7:54 PM,62.1,51.1,67,30.16,10.0,South,11.5,-,N/A,,Mostly Cloudy,190,2012-12-05 00:54:00
8:54 PM,60.1,51.1,72,30.15,10.0,SSW,10.4,-,N/A,,Mostly Cloudy,200,2012-12-05 01:54:00
9:54 PM,60.1,52.0,75,30.14,10.0,SSW,9.2,-,N/A,,Scattered Clouds,200,2012-12-05 02:54:00
10:54 PM,59.0,52.0,78,30.13,10.0,South,9.2,-,N/A,,Mostly Cloudy,190,2012-12-05 03:54:00
11:54 PM,57.9,53.1,84,30.12,10.0,South,5.8,-,N/A,,Mostly Cloudy,190,2012-12-05 04:54:00